Weather History for Valparaiso, FL

Change the Weather History Date:

Friday, March 29, 2013

  Actual Average Record
Temperature  
Mean Temperature 54 °F -  
Max Temperature 69 °F 72 °F 82 °F (1986)
Min Temperature 40 °F 52 °F 27 °F (1955)
Degree Days  
Heating Degree Days 11    
Growing Degree Days 4 (Base 50)    
Moisture  
Dew Point 42 °F    
Average Humidity 62    
Maximum Humidity 87    
Minimum Humidity 28    
Precipitation  
Precipitation 0.00 in - - ()
Sea Level Pressure  
Sea Level Pressure 30.29 in    
Wind  
Wind Speed 4 mph (SW)    
Max Wind Speed 13 mph    
Max Gust Speed -    
Visibility 10 miles    
Events      
Averages and records for this station are not official NWS values.
T = Trace of Precipitation, MM = Missing Value Source: NWS Daily Summary

Daily Weather History Graph

Daily Weather History Graph

Search for Another Location

Airport:

Trip Planner

Search our weather history database for the weather conditions in past years. The results will help you decide how hot, cold, wet, or windy it might be!

Date:

Astronomy

Mar. 29, 2013 Rise Set
Actual Time 6:38 AM CDT 7:03 PM CDT
Civil Twilight 6:14 AM CDT 7:27 PM CDT
Nautical Twilight 5:46 AM CDT 7:55 PM CDT
Astronomical Twilight 5:17 AM CDT 8:24 PM CDT
Moon 9:48 PM CDT (3/29) 7:59 AM CDT (3/29)
Length of Visible Light 13h 13m
Length of Day
12h 24m
Waning Gibbous, 93% of the Moon is Illuminated
Mar 29
Waning Gibbous
Apr 2
Last Quarter
Apr 10
New
Apr 18
First Quarter
Apr 25
Full

Hourly Weather History & Observations

Time (CDT) Temp. Windchill Dew Point Humidity Pressure Visibility Wind Dir Wind Speed Gust Speed Precip Events Conditions
12:55 AM 45.3 °F 44.0 °F 38.7 °F 78% 30.31 in 10.0 mi NW 3.5 mph - N/A   Partly Cloudy
1:55 AM 46.4 °F - 38.5 °F 74% 30.30 in 10.0 mi Calm Calm - N/A   Partly Cloudy
2:55 AM 44.4 °F - 38.5 °F 80% 30.30 in 10.0 mi Calm Calm - N/A   Partly Cloudy
3:55 AM 43.7 °F - 37.8 °F 80% 30.30 in 10.0 mi North 1.2 mph - N/A   Clear
4:55 AM 41.0 °F 39.0 °F 36.9 °F 85% 30.30 in 10.0 mi North 3.5 mph - N/A   Partly Cloudy
5:55 AM 41.2 °F 38.2 °F 36.9 °F 85% 30.30 in 10.0 mi NW 4.6 mph - N/A   Partly Cloudy
6:55 AM 40.3 °F - 36.5 °F 86% 30.31 in 10.0 mi Calm Calm - N/A   Partly Cloudy
7:55 AM 48.9 °F - 40.6 °F 73% 30.33 in 9.0 mi NNE 3.5 mph - N/A   Partly Cloudy
8:55 AM 58.1 °F - 38.3 °F 48% 30.34 in 10.0 mi NNE 4.6 mph - N/A   Partly Cloudy
9:55 AM 64.0 °F - 36.3 °F 36% 30.35 in 10.0 mi East 2.3 mph - N/A   Partly Cloudy
10:55 AM 67.3 °F - 33.3 °F 28% 30.35 in 10.0 mi SSE 4.6 mph - N/A   Partly Cloudy
11:55 AM 68.4 °F - 34.0 °F 28% 30.32 in 10.0 mi South 8.1 mph - N/A   Partly Cloudy
12:55 PM 68.7 °F - 34.2 °F 28% 30.30 in 10.0 mi South 10.4 mph - N/A   Clear
1:55 PM 68.4 °F - 37.2 °F 32% 30.29 in 10.0 mi South 11.5 mph - N/A   Clear
2:55 PM 68.4 °F - 40.8 °F 37% 30.26 in 7.0 mi SSW 9.2 mph - N/A   Clear
3:55 PM 67.1 °F - 43.5 °F 42% 30.26 in 7.0 mi SSW 11.5 mph - N/A   Partly Cloudy
4:55 PM 65.8 °F - 46.8 °F 50% 30.24 in 10.0 mi South 12.7 mph - N/A   Scattered Clouds
5:55 PM 65.5 °F - 49.1 °F 55% 30.24 in 10.0 mi SSW 10.4 mph - N/A   Mostly Cloudy
6:55 PM 62.6 °F - 50.0 °F 63% 30.24 in 10.0 mi SW 4.6 mph - N/A   Scattered Clouds
7:55 PM 61.0 °F - 50.5 °F 68% 30.25 in 10.0 mi SW 2.3 mph - N/A   Scattered Clouds
8:55 PM 58.5 °F - 50.5 °F 75% 30.25 in 10.0 mi South 1.2 mph - N/A   Partly Cloudy
9:55 PM 58.8 °F - 53.4 °F 82% 30.26 in 10.0 mi NNW 2.3 mph - N/A   Partly Cloudy
10:55 PM 55.4 °F - 50.0 °F 82% 30.26 in 10.0 mi NW 1.2 mph - N/A   Partly Cloudy
11:55 PM 56.1 °F - 52.2 °F 87% 30.25 in 10.0 mi Calm Calm - N/A   Clear